Darstellungsparameter: Aktuell verwendete Einstellungen:
Skalierung der Graphiken ... ?
xyx+y,   Skalierungsfaktor:      Skalierung: Modus: x, Faktor: 1
Darstellungszeitraum ... ?
Vom - - bis: - -   Zeitraum: 15.05.2019 - 15.05.2019
Min/Max/Avg-Anzeige ... ?
Zeige MMA aktuell
Zeige MMA Monat
Zeige MMA alles
Zeige --A aktuell
Zeige --A Monat
Zeige --A alles
Keine MMA-Anzeige
MMA:
Keine MMA-Graphiken
MMA-Basis: 15.05.2019 - 15.05.2019
Quicknavigation für Darstellung... ?
Tage:      1T, 2T, 3T, 5T -1T -2T -3T -5T +1T +2T +3T +5T
Wochen: 1W, 2W, 3W -1W -2W -3W +1W +2W +3W
Monate: 1M, 3M, 6M -1M -3M -6M +1M +3M +6M
Jahre:    1J, 3J, 5J, 10J -1J -3J -5J -10J +1J +3J +5J +10J
Nutze für die Darstellung ... ?
Originaldaten oder Mittelwerte auf ...
Stundenbasis Tagesbasis Wochenbasis
Monatsbasis Jahresbasis      Datenbasis: Original-Daten
Darstellen als:
Statistik (Auto) Statistik J:M      Darstellung:
Zur Graphik,    zurück zur Übersicht aller Sensoren.
 
Tabellarische Datenbersicht: ?
 
Sensor: Nr:Datum:Temp:Feuchte:Taupunkt:
Aussen-T/F 1 15-05-2019 00:00:00 7.2 C 73 % 2.69 C
2 15-05-2019 00:05:00 7.2 C 73 % 2.69 C
3 15-05-2019 00:10:00 7.1 C 73 % 2.6 C
4 15-05-2019 00:15:00 7 C 73 % 2.5 C
5 15-05-2019 00:20:00 6.9 C 73 % 2.4 C
6 15-05-2019 00:25:00 6.9 C 73 % 2.4 C
7 15-05-2019 00:30:00 6.8 C 73 % 2.31 C
8 15-05-2019 00:35:00 6.8 C 73 % 2.31 C
9 15-05-2019 00:40:00 6.7 C 74 % 2.4 C
10 15-05-2019 00:45:00 6.7 C 74 % 2.4 C
11 15-05-2019 00:50:00 6.7 C 75 % 2.59 C
12 15-05-2019 00:55:00 6.6 C 75 % 2.49 C
13 15-05-2019 01:00:00 6.5 C 76 % 2.58 C
14 15-05-2019 01:05:00 6.4 C 76 % 2.49 C
15 15-05-2019 01:10:00 6.3 C 76 % 2.39 C
16 15-05-2019 01:15:00 6.2 C 76 % 2.29 C
17 15-05-2019 01:20:00 6.1 C 77 % 2.38 C
18 15-05-2019 01:25:00 5.9 C 77 % 2.19 C
19 15-05-2019 01:30:00 5.8 C 78 % 2.27 C
20 15-05-2019 01:35:00 5.7 C 78 % 2.17 C
21 15-05-2019 01:40:00 5.6 C 78 % 2.07 C
22 15-05-2019 01:45:00 5.5 C 78 % 1.98 C
23 15-05-2019 01:50:00 5.4 C 79 % 2.06 C
24 15-05-2019 01:55:00 5.3 C 79 % 1.96 C
25 15-05-2019 02:00:00 5.1 C 80 % 1.94 C
Sensor: Nr:Datum:Temp:Feuchte:Taupunkt:
Aussen-T/F 26 15-05-2019 02:05:00 5.1 C 80 % 1.94 C
27 15-05-2019 02:10:00 5 C 81 % 2.02 C
28 15-05-2019 02:15:00 4.9 C 81 % 1.92 C
29 15-05-2019 02:20:00 4.8 C 81 % 1.82 C
30 15-05-2019 02:25:00 4.8 C 81 % 1.82 C
31 15-05-2019 02:30:00 4.7 C 81 % 1.73 C
32 15-05-2019 02:35:00 4.7 C 82 % 1.9 C
33 15-05-2019 02:40:00 4.6 C 82 % 1.8 C
34 15-05-2019 02:45:00 4.5 C 83 % 1.87 C
35 15-05-2019 02:50:00 4.4 C 82 % 1.6 C
36 15-05-2019 02:55:00 4.3 C 83 % 1.67 C
37 15-05-2019 03:00:00 4.2 C 84 % 1.74 C
38 15-05-2019 03:05:00 4.2 C 84 % 1.74 C
39 15-05-2019 03:10:00 4.2 C 84 % 1.74 C
40 15-05-2019 03:15:00 4.2 C 84 % 1.74 C
41 15-05-2019 03:20:00 4.2 C 83 % 1.58 C
42 15-05-2019 03:25:00 4.1 C 84 % 1.65 C
43 15-05-2019 03:30:00 4 C 84 % 1.55 C
44 15-05-2019 03:35:00 3.9 C 85 % 1.61 C
45 15-05-2019 03:40:00 3.8 C 85 % 1.52 C
46 15-05-2019 03:45:00 3.7 C 85 % 1.42 C
47 15-05-2019 03:50:00 3.7 C 86 % 1.58 C
48 15-05-2019 03:55:00 3.6 C 86 % 1.48 C
49 15-05-2019 04:00:00 3.5 C 86 % 1.38 C
50 15-05-2019 04:05:00 3.4 C 87 % 1.45 C
Sensor: Nr:Datum:Temp:Feuchte:Taupunkt:
Aussen-T/F 51 15-05-2019 04:10:00 3.3 C 87 % 1.35 C
52 15-05-2019 04:15:00 3.3 C 87 % 1.35 C
53 15-05-2019 04:20:00 3.2 C 87 % 1.25 C
54 15-05-2019 04:25:00 3.2 C 87 % 1.25 C
55 15-05-2019 04:30:00 3.1 C 88 % 1.31 C
56 15-05-2019 04:35:00 3.1 C 88 % 1.31 C
57 15-05-2019 04:40:00 3 C 88 % 1.21 C
58 15-05-2019 04:45:00 2.9 C 88 % 1.11 C
59 15-05-2019 04:50:00 2.9 C 88 % 1.11 C
60 15-05-2019 04:55:00 2.9 C 88 % 1.11 C
61 15-05-2019 05:00:00 2.8 C 88 % 1.02 C
62 15-05-2019 05:05:00 2.8 C 88 % 1.02 C
63 15-05-2019 05:10:00 2.7 C 88 % 0.92 C
64 15-05-2019 05:15:00 2.7 C 89 % 1.07 C
65 15-05-2019 05:20:00 2.6 C 89 % 0.97 C
66 15-05-2019 05:25:00 2.6 C 89 % 0.97 C
67 15-05-2019 05:30:00 2.6 C 89 % 0.97 C
68 15-05-2019 05:35:00 2.6 C 89 % 0.97 C
69 15-05-2019 05:40:00 2.5 C 89 % 0.88 C
70 15-05-2019 05:45:00 2.5 C 90 % 1.03 C
71 15-05-2019 05:50:00 2.5 C 90 % 1.03 C
72 15-05-2019 05:55:00 2.4 C 90 % 0.93 C
73 15-05-2019 06:00:00 2.4 C 90 % 0.93 C
74 15-05-2019 06:05:00 2.3 C 90 % 0.83 C
75 15-05-2019 06:10:00 2.3 C 90 % 0.83 C
Sensor: Nr:Datum:Temp:Feuchte:Taupunkt:
Aussen-T/F 76 15-05-2019 06:15:00 2.3 C 91 % 0.99 C
77 15-05-2019 06:20:00 2.3 C 91 % 0.99 C
78 15-05-2019 06:25:00 2.3 C 91 % 0.99 C
79 15-05-2019 06:30:00 2.3 C 91 % 0.99 C
80 15-05-2019 06:35:00 2.3 C 91 % 0.99 C
81 15-05-2019 06:40:00 2.3 C 91 % 0.99 C
82 15-05-2019 06:45:00 2.3 C 92 % 1.14 C
83 15-05-2019 06:50:00 2.4 C 92 % 1.24 C
84 15-05-2019 06:55:00 2.4 C 92 % 1.24 C
85 15-05-2019 07:00:00 2.5 C 92 % 1.34 C
86 15-05-2019 07:05:00 2.6 C 92 % 1.43 C
87 15-05-2019 07:10:00 2.6 C 92 % 1.43 C
88 15-05-2019 07:15:00 2.6 C 92 % 1.43 C
89 15-05-2019 07:20:00 2.7 C 92 % 1.53 C
90 15-05-2019 07:25:00 2.7 C 92 % 1.53 C
91 15-05-2019 07:30:00 2.7 C 92 % 1.53 C
92 15-05-2019 07:35:00 2.8 C 93 % 1.78 C
93 15-05-2019 07:40:00 2.9 C 93 % 1.88 C
94 15-05-2019 07:45:00 2.9 C 93 % 1.88 C
95 15-05-2019 07:50:00 3 C 93 % 1.98 C
96 15-05-2019 07:55:00 3.1 C 93 % 2.08 C
97 15-05-2019 08:00:00 3.2 C 93 % 2.18 C
98 15-05-2019 08:05:00 3.3 C 93 % 2.28 C
99 15-05-2019 08:10:00 3.3 C 93 % 2.28 C
100 15-05-2019 08:15:00 3.4 C 93 % 2.38 C
Sensor: Nr:Datum:Temp:Feuchte:Taupunkt:
Aussen-T/F 101 15-05-2019 08:20:00 3.6 C 93 % 2.58 C
102 15-05-2019 08:25:00 3.7 C 93 % 2.68 C
103 15-05-2019 08:30:00 3.8 C 93 % 2.77 C
104 15-05-2019 08:35:00 3.9 C 93 % 2.87 C
105 15-05-2019 08:40:00 4.1 C 93 % 3.07 C
106 15-05-2019 08:45:00 4.2 C 92 % 3.02 C
107 15-05-2019 08:50:00 4.3 C 92 % 3.12 C
108 15-05-2019 08:55:00 4.5 C 92 % 3.32 C
109 15-05-2019 09:00:00 4.6 C 91 % 3.26 C
110 15-05-2019 09:05:00 4.8 C 91 % 3.46 C
111 15-05-2019 09:10:00 4.9 C 91 % 3.56 C
112 15-05-2019 09:15:00 5.2 C 91 % 3.85 C
113 15-05-2019 09:20:00 5.4 C 91 % 4.05 C
114 15-05-2019 09:25:00 5.6 C 91 % 4.25 C
115 15-05-2019 09:30:00 5.8 C 90 % 4.29 C
116 15-05-2019 09:35:00 6.1 C 89 % 4.43 C
117 15-05-2019 09:40:00 6.4 C 81 % 3.38 C
118 15-05-2019 09:45:00 7.2 C 81 % 4.16 C
119 15-05-2019 09:50:00 7.6 C 69 % 2.29 C
120 15-05-2019 09:55:00 8.3 C 68 % 2.75 C
121 15-05-2019 10:00:00 8.7 C 67 % 2.92 C
122 15-05-2019 10:05:00 9.1 C 58 % 1.29 C
123 15-05-2019 10:10:00 9.4 C 57 % 1.33 C
124 15-05-2019 10:15:00 9.7 C 57 % 1.61 C
125 15-05-2019 10:20:00 9.8 C 58 % 1.94 C
Sensor: Nr:Datum:Temp:Feuchte:Taupunkt:
Aussen-T/F 126 15-05-2019 10:25:00 10 C 53 % 0.87 C
127 15-05-2019 10:30:00 10.3 C 55 % 1.67 C
128 15-05-2019 10:35:00 10.6 C 53 % 1.43 C
129 15-05-2019 10:40:00 10.8 C 50 % 0.81 C
130 15-05-2019 10:45:00 10.9 C 50 % 0.9 C
131 15-05-2019 10:50:00 11.2 C 50 % 1.18 C
132 15-05-2019 10:55:00 11.4 C 48 % 0.79 C
133 15-05-2019 11:00:00 11.5 C 48 % 0.89 C
134 15-05-2019 11:05:00 11.7 C 47 % 0.78 C
135 15-05-2019 11:10:00 11.8 C 46 % 0.57 C
136 15-05-2019 11:15:00 11.9 C 47 % 0.96 C
137 15-05-2019 11:20:00 12.1 C 46 % 0.85 C
138 15-05-2019 11:25:00 12 C 46 % 0.75 C
139 15-05-2019 11:30:00 12.1 C 44 % 0.23 C
140 15-05-2019 11:35:00 12.1 C 45 % 0.54 C
141 15-05-2019 11:40:00 12.2 C 45 % 0.63 C
142 15-05-2019 11:45:00 12.2 C 44 % 0.32 C
143 15-05-2019 11:50:00 12.4 C 46 % 1.12 C
144 15-05-2019 11:55:00 12.6 C 44 % 0.69 C
145 15-05-2019 12:00:00 12.7 C 44 % 0.78 C
146 15-05-2019 12:05:00 12.7 C 44 % 0.78 C
147 15-05-2019 12:10:00 12.8 C 41 % -0.11 C
148 15-05-2019 12:15:00 12.7 C 41 % -0.2 C
149 15-05-2019 12:20:00 12.7 C 41 % -0.2 C
150 15-05-2019 12:25:00 12.9 C 42 % 0.31 C
Sensor: Nr:Datum:Temp:Feuchte:Taupunkt:
Aussen-T/F 151 15-05-2019 12:30:00 13 C 39 % -0.61 C
152 15-05-2019 12:35:00 13 C 39 % -0.61 C
153 15-05-2019 12:40:00 13.1 C 39 % -0.52 C
154 15-05-2019 12:45:00 13.1 C 44 % 1.14 C
155 15-05-2019 12:50:00 13.2 C 39 % -0.43 C
156 15-05-2019 12:55:00 13.5 C 38 % -0.52 C
157 15-05-2019 13:00:00 13.6 C 37 % -0.8 C
158 15-05-2019 13:05:00 13.7 C 36 % -1.08 C
159 15-05-2019 13:10:00 13.8 C 35 % -1.38 C
160 15-05-2019 13:15:00 13.8 C 35 % -1.38 C
161 15-05-2019 13:20:00 13.9 C 37 % -0.53 C
162 15-05-2019 13:25:00 14 C 34 % -1.59 C
163 15-05-2019 13:30:00 14.2 C 35 % -1.02 C
164 15-05-2019 13:35:00 14.3 C 35 % -0.93 C
165 15-05-2019 13:40:00 14.4 C 35 % -0.85 C
166 15-05-2019 13:45:00 14.4 C 35 % -0.85 C
167 15-05-2019 13:50:00 14.4 C 38 % 0.28 C
168 15-05-2019 13:55:00 14.5 C 39 % 0.73 C
169 15-05-2019 14:00:00 14.6 C 37 % 0.09 C
170 15-05-2019 14:05:00 14.6 C 38 % 0.46 C
171 15-05-2019 14:10:00 14.7 C 39 % 0.91 C
172 15-05-2019 14:15:00 14.8 C 38 % 0.64 C
173 15-05-2019 14:20:00 14.8 C 36 % -0.11 C
174 15-05-2019 14:25:00 14.8 C 37 % 0.27 C
175 15-05-2019 14:30:00 14.9 C 37 % 0.36 C
Sensor: Nr:Datum:Temp:Feuchte:Taupunkt:
Aussen-T/F 176 15-05-2019 14:35:00 15.1 C 37 % 0.54 C
177 15-05-2019 14:40:00 15.2 C 37 % 0.62 C
178 15-05-2019 14:45:00 15.3 C 37 % 0.71 C
179 15-05-2019 14:50:00 15.3 C 37 % 0.71 C
180 15-05-2019 14:55:00 15.3 C 36 % 0.34 C
181 15-05-2019 15:00:00 15.6 C 35 % 0.21 C
182 15-05-2019 15:05:00 15.6 C 35 % 0.21 C
183 15-05-2019 15:10:00 15.7 C 34 % -0.1 C
184 15-05-2019 15:15:00 15.7 C 33 % -0.51 C
185 15-05-2019 15:20:00 15.7 C 34 % -0.1 C
186 15-05-2019 15:25:00 15.9 C 34 % 0.08 C
187 15-05-2019 15:30:00 16.1 C 33 % -0.16 C
188 15-05-2019 15:35:00 16.3 C 35 % 0.83 C
189 15-05-2019 15:40:00 16.2 C 34 % 0.34 C
190 15-05-2019 15:45:00 16.2 C 34 % 0.34 C
191 15-05-2019 15:50:00 16.3 C 34 % 0.43 C
192 15-05-2019 15:55:00 16.4 C 34 % 0.52 C
193 15-05-2019 16:00:00 16.6 C 34 % 0.69 C
194 15-05-2019 16:05:00 16.6 C 32 % -0.14 C
195 15-05-2019 16:10:00 16.7 C 34 % 0.78 C
196 15-05-2019 16:15:00 17.1 C 38 % 2.68 C
197 15-05-2019 16:20:00 17.4 C 34 % 1.4 C
198 15-05-2019 16:25:00 17.4 C 35 % 1.8 C
199 15-05-2019 16:30:00 17.3 C 33 % 0.89 C
200 15-05-2019 16:35:00 17.1 C 34 % 1.13 C
Sensor: Nr:Datum:Temp:Feuchte:Taupunkt:
Aussen-T/F 201 15-05-2019 16:40:00 17.2 C 36 % 2.02 C
202 15-05-2019 16:45:00 17.5 C 34 % 1.48 C
203 15-05-2019 16:50:00 17.6 C 34 % 1.57 C
204 15-05-2019 16:55:00 17.8 C 34 % 1.75 C
205 15-05-2019 17:00:00 17.8 C 32 % 0.9 C
206 15-05-2019 17:05:00 17.9 C 33 % 1.42 C
207 15-05-2019 17:10:00 17.7 C 33 % 1.24 C
208 15-05-2019 17:15:00 17.4 C 31 % 0.12 C
209 15-05-2019 17:20:00 17.2 C 33 % 0.81 C
210 15-05-2019 17:25:00 17.4 C 33 % 0.98 C
211 15-05-2019 17:30:00 17.7 C 34 % 1.66 C
212 15-05-2019 17:35:00 17.7 C 33 % 1.24 C
213 15-05-2019 17:40:00 17.8 C 34 % 1.75 C
214 15-05-2019 17:45:00 17.5 C 33 % 1.07 C
215 15-05-2019 17:50:00 17.4 C 34 % 1.4 C
216 15-05-2019 17:55:00 17.5 C 34 % 1.48 C
217 15-05-2019 18:00:00 17.5 C 34 % 1.48 C
218 15-05-2019 18:05:00 17.5 C 32 % 0.64 C
219 15-05-2019 18:10:00 17.2 C 33 % 0.81 C
220 15-05-2019 18:15:00 17.1 C 34 % 1.13 C
221 15-05-2019 18:20:00 17.2 C 35 % 1.62 C
222 15-05-2019 18:25:00 17.5 C 34 % 1.48 C
223 15-05-2019 18:30:00 17.6 C 34 % 1.57 C
224 15-05-2019 18:35:00 17.6 C 34 % 1.57 C
225 15-05-2019 18:40:00 17.3 C 35 % 1.71 C
Sensor: Nr:Datum:Temp:Feuchte:Taupunkt:
Aussen-T/F 226 15-05-2019 18:45:00 17.4 C 34 % 1.4 C
227 15-05-2019 18:50:00 17.4 C 34 % 1.4 C
228 15-05-2019 18:55:00 17.3 C 34 % 1.31 C
229 15-05-2019 19:00:00 17.2 C 34 % 1.22 C
230 15-05-2019 19:05:00 17.2 C 34 % 1.22 C
231 15-05-2019 19:10:00 16.9 C 34 % 0.96 C
232 15-05-2019 19:15:00 16.9 C 35 % 1.36 C
233 15-05-2019 19:20:00 16.8 C 35 % 1.27 C
234 15-05-2019 19:25:00 16.7 C 35 % 1.18 C
235 15-05-2019 19:30:00 16.6 C 35 % 1.09 C
236 15-05-2019 19:35:00 16.3 C 35 % 0.83 C
237 15-05-2019 19:40:00 16.2 C 37 % 1.51 C
238 15-05-2019 19:45:00 16.1 C 36 % 1.04 C
239 15-05-2019 19:50:00 16 C 37 % 1.33 C
240 15-05-2019 19:55:00 15.8 C 36 % 0.78 C
241 15-05-2019 20:00:00 15.8 C 37 % 1.16 C
242 15-05-2019 20:05:00 15.8 C 43 % 3.26 C
243 15-05-2019 20:10:00 15.7 C 37 % 1.07 C
244 15-05-2019 20:15:00 15.7 C 39 % 1.8 C
245 15-05-2019 20:20:00 15.6 C 38 % 1.35 C
246 15-05-2019 20:25:00 15.4 C 39 % 1.53 C
247 15-05-2019 20:30:00 15.2 C 39 % 1.35 C
248 15-05-2019 20:35:00 15.1 C 41 % 1.96 C
249 15-05-2019 20:40:00 14.8 C 47 % 3.61 C
250 15-05-2019 20:45:00 14.5 C 46 % 3.03 C
Sensor: Nr:Datum:Temp:Feuchte:Taupunkt:
Aussen-T/F 251 15-05-2019 20:50:00 14.1 C 49 % 3.56 C
252 15-05-2019 20:55:00 13.6 C 52 % 3.94 C
253 15-05-2019 21:00:00 13.1 C 53 % 3.75 C
254 15-05-2019 21:05:00 12.6 C 54 % 3.55 C
255 15-05-2019 21:10:00 12.2 C 55 % 3.44 C
256 15-05-2019 21:15:00 11.9 C 55 % 3.16 C
257 15-05-2019 21:20:00 11.7 C 56 % 3.23 C
258 15-05-2019 21:25:00 11.4 C 58 % 3.44 C
259 15-05-2019 21:30:00 11.3 C 55 % 2.6 C
260 15-05-2019 21:35:00 11.1 C 59 % 3.4 C
261 15-05-2019 21:40:00 10.7 C 58 % 2.79 C
262 15-05-2019 21:45:00 10.7 C 59 % 3.03 C
263 15-05-2019 21:50:00 10.5 C 60 % 3.08 C
264 15-05-2019 21:55:00 10.3 C 60 % 2.89 C
265 15-05-2019 22:00:00 10.2 C 59 % 2.56 C
266 15-05-2019 22:05:00 10.1 C 60 % 2.7 C
267 15-05-2019 22:10:00 10.1 C 60 % 2.7 C
268 15-05-2019 22:15:00 9.9 C 60 % 2.51 C
269 15-05-2019 22:20:00 9.8 C 61 % 2.65 C
270 15-05-2019 22:25:00 9.7 C 60 % 2.32 C
271 15-05-2019 22:30:00 9.5 C 60 % 2.13 C
272 15-05-2019 22:35:00 9.3 C 60 % 1.95 C
273 15-05-2019 22:40:00 9.1 C 60 % 1.76 C
274 15-05-2019 22:45:00 9 C 60 % 1.66 C
275 15-05-2019 22:50:00 8.9 C 62 % 2.03 C
Sensor: Nr:Datum:Temp:Feuchte:Taupunkt:
Aussen-T/F 276 15-05-2019 22:55:00 8.7 C 62 % 1.84 C
277 15-05-2019 23:00:00 8.7 C 62 % 1.84 C
278 15-05-2019 23:05:00 8.5 C 63 % 1.87 C
279 15-05-2019 23:10:00 8.4 C 62 % 1.55 C
280 15-05-2019 23:15:00 8.3 C 62 % 1.46 C
281 15-05-2019 23:20:00 8.2 C 64 % 1.81 C
282 15-05-2019 23:25:00 8.1 C 64 % 1.71 C
283 15-05-2019 23:30:00 8 C 63 % 1.4 C
284 15-05-2019 23:35:00 7.9 C 65 % 1.74 C
285 15-05-2019 23:40:00 7.8 C 65 % 1.64 C
286 15-05-2019 23:45:00 7.8 C 66 % 1.86 C
287 15-05-2019 23:50:00 7.7 C 66 % 1.76 C
288 15-05-2019 23:55:00 7.7 C 65 % 1.55 C

Legende:
   Min
   Max


Maximal/Minimal-Werte vom 15.05.2019 - 15.05.2019

Sensor Min Max Avg
Temp
(Aussen-T/F)
2.3 °C
15-05-2019  06:05:00
17.9 °C
15-05-2019  17:05:00
9.8 °C
Feuchte
(Aussen-T/F)
31 %
15-05-2019  17:15:00
93 %
15-05-2019  07:35:00
60.96 %
Taupunkt
(Aussen-T/F)
-1.59 C
15-05-2019  13:25:00
4.43 C
15-05-2019  09:35:00
1.49 C

Die Daten stammen von einer Davis Vantage Pro 2 Wetter-Station und werden unter Linux mit der Software wview2wettercgi und aufbereitet. Alle Angaben erfolgen ohne Gewähr für ihre Vollständigkeit oder Richtigkeit.
Kontakt: Rainer Krienke krienke@uni-koblenz.de . Meine Webseiten an der Uni Koblenz oder privat.
Version: $Revision: 0.78 $